Starlink 5093

operational
NORAD ID: 56332 Int'l Des: 2023-058 Owner: SPXS Country: US Constellation: starlink
LEOCIRCULARRETROGRADESSO

About Starlink 5093

Description loading...

Live Position

Loading 3D Globe...

Upcoming Passes

Altitude History

Altitude vs Time

uPlot chart will show altitude changes over time

Two-Line Element Set

1 56332U 23058R 26036.27108667 -.00003121 00000-0 -23866-3 0 9998
2 56332 97.6094 38.4273 0003580 35.5607 324.5855 15.01236072153261
Epoch: Feb 5, 2026 • Age: 9 hours

Current Status

Altitude 570.5 km
Velocity 7.57 km/s
Sub-Earth Point -11.14°S, 148.79°W
Launch Date Apr 27, 2023
Age 2.7 years
Type internet

Technical Details

Classification Payload
Mass 300.00 kg
Dry Mass 260.00 kg
Total Mass 300.00 kg
Length 0.20 m
Diameter 2.80 m
Span 9.00 m
Shape Box + pan
Manufacturer SPXS
Bus Type Starlink
Phase Status In Orbit
Owner/State SPXS/US

Large Constellations

Loading constellations...